JAI514 VAPO-OMAA

Flight info

Callsign JAI514
Flight time N/A
Altitude 38000
Route BBB DCT BIMOT DCT SUGID N571 PARAR N767 VUSIN L444 TOLDA M628 TULBU N563 NOBTO
Aircraft B38M/M-SDE1FGHILORVWXY/HB1

Departure

Time 2026-05-06 12:13
Airport Pune International Airport (VAPO)

Arrival

Time N/A
Airport Zayed International Airport (OMAA)
Time Latitude Longitude Altitude Speed Heading
2026-05-06 12:00 18.57993 73.91006 1919 ft 0 kts 189°
2026-05-06 12:05 18.58000 73.91007 1922 ft 4 kts 190°
2026-05-06 12:05 18.58027 73.91012 1922 ft 4 kts 183°
2026-05-06 12:05 18.58043 73.91011 1922 ft 4 kts 106°
2026-05-06 12:05 18.58047 73.90986 1922 ft 4 kts 97°
2026-05-06 12:06 18.58048 73.90968 1922 ft 0 kts 96°
2026-05-06 12:07 18.58048 73.90970 1922 ft 1 kts 96°
2026-05-06 12:08 18.58051 73.91006 1924 ft 9 kts 58°
2026-05-06 12:08 18.58111 73.91029 1922 ft 10 kts 31°
2026-05-06 12:08 18.58121 73.91097 1922 ft 10 kts 94°
2026-05-06 12:08 18.58116 73.91179 1922 ft 12 kts 94°
2026-05-06 12:09 18.58110 73.91274 1922 ft 14 kts 94°
2026-05-06 12:09 18.58103 73.91383 1922 ft 16 kts 94°
2026-05-06 12:09 18.58096 73.91507 1922 ft 18 kts 94°
2026-05-06 12:09 18.58087 73.91646 1922 ft 20 kts 94°
2026-05-06 12:10 18.58077 73.91799 1922 ft 22 kts 94°
2026-05-06 12:10 18.58067 73.91967 1922 ft 24 kts 93°
2026-05-06 12:10 18.58055 73.92150 1922 ft 26 kts 94°
2026-05-06 12:10 18.58043 73.92346 1922 ft 28 kts 94°
2026-05-06 12:11 18.58031 73.92557 1922 ft 29 kts 93°
2026-05-06 12:11 18.58016 73.92769 1922 ft 28 kts 93°
2026-05-06 12:11 18.58007 73.92929 1922 ft 17 kts 95°
2026-05-06 12:11 18.58031 73.93002 1922 ft 9 kts 12°
2026-05-06 12:12 18.58101 73.93006 1922 ft 11 kts
2026-05-06 12:12 18.58161 73.92992 1922 ft 8 kts 300°
2026-05-06 12:12 18.58170 73.92927 1922 ft 10 kts 274°
2026-05-06 12:12 18.58188 73.92626 1922 ft 80 kts 274°
2026-05-06 12:13 18.58238 73.91785 1922 ft 147 kts 273°
2026-05-06 12:13 18.58325 73.90526 2055 ft 193 kts 275°
2026-05-06 12:13 18.58431 73.89006 2583 ft 214 kts 274°
2026-05-06 12:13 18.58519 73.87501 3400 ft 206 kts 275°
2026-05-06 12:14 18.58542 73.85931 3954 ft 222 kts 276°
2026-05-06 12:14 18.58859 73.84313 4555 ft 230 kts 289°
2026-05-06 12:14 18.59313 73.82655 5258 ft 239 kts 288°
2026-05-06 12:14 18.59745 73.80947 6095 ft 245 kts 287°
2026-05-06 12:15 18.60170 73.79198 6777 ft 255 kts 287°
2026-05-06 12:15 18.60615 73.77316 7345 ft 271 kts 287°
2026-05-06 12:15 18.61074 73.75338 7986 ft 283 kts 285°
2026-05-06 12:15 18.61541 73.73291 8748 ft 290 kts 284°
2026-05-06 12:16 18.62018 73.71194 9505 ft 298 kts 284°
2026-05-06 12:16 18.62504 73.69043 10200 ft 307 kts 284°
2026-05-06 12:16 18.63014 73.66790 10617 ft 326 kts 284°
2026-05-06 12:16 18.63551 73.64407 10968 ft 344 kts 284°
2026-05-06 12:17 18.64113 73.61913 11490 ft 354 kts 284°
2026-05-06 12:17 18.64686 73.59375 12263 ft 357 kts 284°
2026-05-06 12:17 18.65253 73.56858 12967 ft 362 kts 284°
2026-05-06 12:17 18.65831 73.54296 13662 ft 367 kts 284°
2026-05-06 12:18 18.66422 73.51668 14351 ft 369 kts 284°
2026-05-06 12:18 18.67016 73.49030 15051 ft 371 kts 284°
2026-05-06 12:18 18.67615 73.46367 15707 ft 374 kts 284°
2026-05-06 12:18 18.68217 73.43690 16398 ft 376 kts 284°
2026-05-06 12:19 18.68820 73.41000 17070 ft 377 kts 284°
2026-05-06 12:19 18.69425 73.38305 17702 ft 380 kts 284°
2026-05-06 12:19 18.70036 73.35584 18272 ft 382 kts 284°
2026-05-06 12:19 18.70649 73.32849 18773 ft 384 kts 284°
2026-05-06 12:20 18.71266 73.30090 19293 ft 386 kts 284°
2026-05-06 12:20 18.71883 73.27335 19846 ft 386 kts 284°
2026-05-06 12:20 18.72491 73.24612 20299 ft 388 kts 284°
2026-05-06 12:20 18.73110 73.21840 20809 ft 388 kts 284°
2026-05-06 12:21 18.73734 73.19046 21238 ft 392 kts 284°
2026-05-06 12:21 18.74361 73.16239 21670 ft 394 kts 284°
2026-05-06 12:21 18.74989 73.13422 22126 ft 396 kts 284°
2026-05-06 12:21 18.75620 73.10587 22559 ft 398 kts 284°
2026-05-06 12:22 18.76254 73.07740 22990 ft 399 kts 284°
2026-05-06 12:22 18.76890 73.04883 23394 ft 401 kts 284°
2026-05-06 12:22 18.77529 73.02010 23728 ft 403 kts 284°
2026-05-06 12:22 18.78169 72.99124 24054 ft 405 kts 284°
2026-05-06 12:23 18.78806 72.96255 24360 ft 407 kts 284°
2026-05-06 12:23 18.79456 72.93323 24671 ft 410 kts 284°
2026-05-06 12:23 18.80109 72.90376 24942 ft 413 kts 284°
2026-05-06 12:23 18.80759 72.87443 25254 ft 415 kts 284°
2026-05-06 12:24 18.81418 72.84465 25565 ft 418 kts 284°
2026-05-06 12:24 18.82080 72.81466 25877 ft 420 kts 284°
2026-05-06 12:24 18.82738 72.78487 26182 ft 422 kts 284°
2026-05-06 12:24 18.83406 72.75464 26489 ft 424 kts 284°
2026-05-06 12:25 18.84077 72.72422 26792 ft 427 kts 284°
2026-05-06 12:25 18.84750 72.69364 27093 ft 429 kts 284°
2026-05-06 12:25 18.85427 72.66289 27396 ft 431 kts 284°
2026-05-06 12:25 18.86108 72.63194 27693 ft 433 kts 284°
2026-05-06 12:26 18.86789 72.60097 27980 ft 436 kts 284°
2026-05-06 12:26 18.87475 72.56972 28281 ft 438 kts 284°
2026-05-06 12:26 18.87932 72.54890 28452 ft 440 kts 284°
2026-05-06 12:26 18.88623 72.51741 28750 ft 442 kts 284°
2026-05-06 12:27 18.89546 72.47528 29133 ft 445 kts 284°
2026-05-06 12:27 18.90016 72.45380 29319 ft 446 kts 284°
2026-05-06 12:27 18.90717 72.42176 29597 ft 448 kts 284°
2026-05-06 12:27 18.91414 72.38988 29861 ft 451 kts 284°
2026-05-06 12:28 18.92117 72.35767 30094 ft 453 kts 284°
2026-05-06 12:28 18.92827 72.32515 30333 ft 454 kts 284°
2026-05-06 12:28 18.93534 72.29265 30577 ft 456 kts 284°
2026-05-06 12:28 18.94246 72.26002 30841 ft 456 kts 284°
2026-05-06 12:29 18.94958 72.22728 31058 ft 458 kts 284°
2026-05-06 12:29 18.95673 72.19441 31259 ft 461 kts 284°
2026-05-06 12:29 18.96392 72.16131 31496 ft 462 kts 284°
2026-05-06 12:29 18.97111 72.12816 31731 ft 463 kts 284°
2026-05-06 12:30 18.97820 72.09546 32012 ft 463 kts 284°
2026-05-06 12:30 18.98539 72.06226 32300 ft 463 kts 284°
2026-05-06 12:30 18.99259 72.02901 32595 ft 463 kts 284°
2026-05-06 12:30 18.99975 71.99590 32904 ft 462 kts 284°
2026-05-06 12:31 19.00691 71.96277 33233 ft 461 kts 284°
2026-05-06 12:31 19.01404 71.92972 33546 ft 461 kts 283°
2026-05-06 12:31 19.02117 71.89666 33838 ft 460 kts 283°
2026-05-06 12:31 19.02829 71.86364 34043 ft 461 kts 283°
2026-05-06 12:32 19.03528 71.83117 34312 ft 460 kts 283°
2026-05-06 12:32 19.04236 71.79827 34574 ft 460 kts 283°
2026-05-06 12:32 19.04945 71.76525 34859 ft 458 kts 283°
2026-05-06 12:32 19.05650 71.73241 35138 ft 457 kts 283°
2026-05-06 12:33 19.06354 71.69958 35382 ft 457 kts 283°
2026-05-06 12:33 19.07057 71.66680 35652 ft 456 kts 283°
2026-05-06 12:33 19.07758 71.63408 35802 ft 456 kts 283°
2026-05-06 12:33 19.08456 71.60141 35782 ft 453 kts 283°
2026-05-06 12:34 19.09832 71.53703 35786 ft 454 kts 283°
2026-05-06 12:34 19.11226 71.47164 35791 ft 455 kts 283°
2026-05-06 12:35 19.12612 71.40649 35789 ft 455 kts 283°
2026-05-06 12:35 19.14001 71.34110 35791 ft 455 kts 283°
2026-05-06 12:36 19.15385 71.27585 35800 ft 458 kts 283°
2026-05-06 12:36 19.16783 71.20977 35793 ft 461 kts 283°
2026-05-06 12:37 19.18157 71.14476 35796 ft 461 kts 283°
2026-05-06 12:37 19.19556 71.07843 35796 ft 461 kts 283°
2026-05-06 12:38 19.20945 71.01244 35798 ft 461 kts 283°
2026-05-06 12:38 19.22336 70.94621 35799 ft 461 kts 283°
2026-05-06 12:39 19.23725 70.87996 35796 ft 461 kts 283°
2026-05-06 12:39 19.25109 70.81384 35800 ft 462 kts 283°
2026-05-06 12:40 19.26498 70.74738 35801 ft 462 kts 283°
2026-05-06 12:40 19.27874 70.68134 35802 ft 462 kts 283°
2026-05-06 12:41 19.29257 70.61492 35802 ft 462 kts 283°
2026-05-06 12:41 19.30633 70.54866 35801 ft 462 kts 283°
2026-05-06 12:42 19.32014 70.48205 35804 ft 464 kts 283°
2026-05-06 12:42 19.33394 70.41538 35807 ft 464 kts 283°
2026-05-06 12:43 19.34771 70.34867 35806 ft 464 kts 283°
2026-05-06 12:43 19.36144 70.28205 35804 ft 463 kts 283°
2026-05-06 12:44 19.37508 70.21577 35802 ft 461 kts 283°
2026-05-06 12:44 19.38872 70.14936 35807 ft 462 kts 283°
2026-05-06 12:45 19.40236 70.08280 35806 ft 462 kts 283°
2026-05-06 12:46 19.42271 69.98327 35811 ft 462 kts 282°
2026-05-06 12:46 19.43626 69.91679 35810 ft 462 kts 282°
2026-05-06 12:47 19.44972 69.85069 35807 ft 462 kts 282°
2026-05-06 12:47 19.46333 69.78370 35812 ft 463 kts 282°
2026-05-06 12:48 19.47673 69.71757 35810 ft 463 kts 282°
2026-05-06 12:48 19.49025 69.65079 35814 ft 463 kts 282°
2026-05-06 12:49 19.50372 69.58409 35812 ft 463 kts 282°
2026-05-06 12:49 19.51712 69.51760 35812 ft 463 kts 282°
2026-05-06 12:50 19.53056 69.45077 35814 ft 464 kts 282°
2026-05-06 12:50 19.54399 69.38388 35815 ft 464 kts 282°
2026-05-06 12:51 19.56594 69.32012 35834 ft 462 kts 297°
2026-05-06 12:51 19.59435 69.25965 35817 ft 461 kts 297°
2026-05-06 12:52 19.62343 69.19890 35814 ft 461 kts 297°
2026-05-06 12:52 19.65257 69.13824 35813 ft 462 kts 297°
2026-05-06 12:53 19.68175 69.07742 35813 ft 462 kts 297°
2026-05-06 12:53 19.71085 69.01673 35816 ft 462 kts 297°
2026-05-06 12:54 19.74000 68.95585 35815 ft 462 kts 297°
2026-05-06 12:54 19.76908 68.89505 35816 ft 462 kts 297°
2026-05-06 12:55 19.79815 68.83423 35811 ft 463 kts 297°
2026-05-06 12:55 19.82691 68.77397 35823 ft 463 kts 297°
2026-05-06 12:56 19.85583 68.71334 35813 ft 460 kts 297°
2026-05-06 12:56 19.88471 68.65269 35816 ft 460 kts 297°
2026-05-06 12:57 19.91353 68.59212 35820 ft 460 kts 297°
2026-05-06 12:57 19.94233 68.53154 35817 ft 460 kts 297°
2026-05-06 12:58 19.97118 68.47077 35819 ft 461 kts 297°
2026-05-06 12:58 20.00012 68.40976 35820 ft 461 kts 297°
2026-05-06 12:59 20.02885 68.34911 35819 ft 461 kts 297°
2026-05-06 12:59 20.05731 68.28898 35820 ft 461 kts 297°
2026-05-06 13:00 20.08614 68.22798 35823 ft 460 kts 296°
2026-05-06 13:00 20.11459 68.16775 35823 ft 459 kts 296°
2026-05-06 13:01 20.14326 68.10696 35824 ft 460 kts 296°
2026-05-06 13:01 20.17190 68.04618 35822 ft 460 kts 296°
2026-05-06 13:02 20.20059 67.98523 35820 ft 460 kts 296°
2026-05-06 13:02 20.22921 67.92434 35820 ft 460 kts 296°
2026-05-06 13:03 20.25784 67.86340 35819 ft 460 kts 296°
2026-05-06 13:03 20.28636 67.80259 35821 ft 460 kts 296°
2026-05-06 13:04 20.31496 67.74156 35825 ft 460 kts 296°
2026-05-06 13:04 20.34327 67.68108 35823 ft 457 kts 296°
2026-05-06 13:05 20.37155 67.62059 35824 ft 456 kts 296°
2026-05-06 13:05 20.39975 67.56021 35823 ft 456 kts 296°
2026-05-06 13:06 20.42808 67.49949 35819 ft 457 kts 296°
2026-05-06 13:06 20.45619 67.43918 35823 ft 457 kts 296°
2026-05-06 13:07 20.48451 67.37833 35820 ft 457 kts 296°
2026-05-06 13:07 20.51274 67.31762 35821 ft 457 kts 296°
2026-05-06 13:08 20.54103 67.25673 35821 ft 457 kts 296°
2026-05-06 13:08 20.56926 67.19587 35818 ft 458 kts 296°
2026-05-06 13:09 20.59738 67.13519 35825 ft 459 kts 296°
2026-05-06 13:09 20.62561 67.07420 35820 ft 459 kts 296°
2026-05-06 13:10 20.65388 67.01306 35823 ft 459 kts 296°
2026-05-06 13:10 20.68191 66.95237 35824 ft 459 kts 296°
2026-05-06 13:11 20.71010 66.89126 35820 ft 459 kts 296°
2026-05-06 13:11 20.73829 66.83010 35825 ft 460 kts 296°
2026-05-06 13:12 20.76653 66.76875 35823 ft 460 kts 296°
2026-05-06 13:12 20.79475 66.70736 35831 ft 459 kts 296°
2026-05-06 13:13 20.82274 66.64640 35823 ft 457 kts 296°
2026-05-06 13:13 20.85074 66.58538 35824 ft 457 kts 296°
2026-05-06 13:14 20.87858 66.52461 35819 ft 458 kts 296°
2026-05-06 13:14 20.90662 66.46334 35820 ft 458 kts 296°
2026-05-06 13:15 20.93450 66.40235 35825 ft 458 kts 296°
2026-05-06 13:15 20.96247 66.34110 35824 ft 457 kts 296°
2026-05-06 13:16 20.99041 66.27986 35825 ft 458 kts 296°
2026-05-06 13:16 21.01364 66.22889 35821 ft 458 kts 296°
2026-05-06 13:17 21.04138 66.16797 35828 ft 457 kts 296°
2026-05-06 13:17 21.06913 66.10693 35827 ft 456 kts 296°
2026-05-06 13:18 21.09690 66.04581 35826 ft 456 kts 296°
2026-05-06 13:18 21.12505 65.98479 35826 ft 456 kts 297°
2026-05-06 13:19 21.15364 65.92427 35826 ft 456 kts 296°
2026-05-06 13:19 21.18211 65.86382 35825 ft 457 kts 296°
2026-05-06 13:20 21.21077 65.80292 35822 ft 457 kts 296°
2026-05-06 13:20 21.23944 65.74191 35823 ft 457 kts 296°
2026-05-06 13:21 21.26794 65.68118 35830 ft 456 kts 296°
2026-05-06 13:21 21.29633 65.62064 35824 ft 454 kts 296°
2026-05-06 13:22 21.32472 65.56002 35828 ft 456 kts 296°
2026-05-06 13:22 21.35317 65.49922 35827 ft 456 kts 296°
2026-05-06 13:23 21.38135 65.43890 35823 ft 456 kts 296°
2026-05-06 13:23 21.40975 65.37804 35824 ft 456 kts 296°
2026-05-06 13:24 21.43810 65.31724 35822 ft 456 kts 296°
2026-05-06 13:24 21.46649 65.25627 35824 ft 456 kts 296°
2026-05-06 13:25 21.49477 65.19546 35830 ft 455 kts 296°
2026-05-06 13:25 21.52286 65.13500 35826 ft 454 kts 296°
2026-05-06 13:26 21.55106 65.07422 35824 ft 454 kts 296°
2026-05-06 13:26 21.57925 65.01339 35827 ft 454 kts 296°
2026-05-06 13:27 21.60728 64.95283 35820 ft 455 kts 296°
2026-05-06 13:27 21.63528 64.89228 35824 ft 455 kts 296°
2026-05-06 13:28 21.66335 64.83149 35823 ft 455 kts 296°
2026-05-06 13:28 21.69144 64.77061 35823 ft 455 kts 296°
2026-05-06 13:29 21.71946 64.70980 35826 ft 454 kts 296°
2026-05-06 13:29 21.74741 64.64905 35824 ft 453 kts 296°
2026-05-06 13:30 21.77541 64.58815 35826 ft 453 kts 296°
2026-05-06 13:30 21.80332 64.52735 35826 ft 453 kts 296°
2026-05-06 13:31 21.83122 64.46650 35827 ft 453 kts 296°
2026-05-06 13:31 21.85893 64.40600 35827 ft 453 kts 296°
2026-05-06 13:32 21.88681 64.34506 35821 ft 453 kts 296°
2026-05-06 13:32 21.91466 64.28411 35827 ft 454 kts 296°
2026-05-06 13:33 21.94244 64.22326 35829 ft 452 kts 296°
2026-05-06 13:33 21.97011 64.16256 35829 ft 452 kts 296°
2026-05-06 13:34 21.99779 64.10175 35825 ft 452 kts 296°
2026-05-06 13:34 22.02527 64.04132 35823 ft 452 kts 296°
2026-05-06 13:35 22.05286 63.98058 35828 ft 453 kts 296°
2026-05-06 13:35 22.08052 63.91962 35826 ft 453 kts 296°
2026-05-06 13:36 22.10803 63.85890 35827 ft 453 kts 296°
2026-05-06 13:36 22.13536 63.79852 35834 ft 453 kts 296°
2026-05-06 13:37 22.16282 63.73777 35821 ft 451 kts 296°
2026-05-06 13:37 22.19029 63.67693 35827 ft 451 kts 296°
2026-05-06 13:38 22.21773 63.61606 35826 ft 451 kts 296°
2026-05-06 13:38 22.24501 63.55550 35826 ft 451 kts 296°
2026-05-06 13:39 22.27237 63.49468 35830 ft 451 kts 296°
2026-05-06 13:39 22.29977 63.43369 35829 ft 451 kts 296°
2026-05-06 13:40 22.32682 63.37342 35823 ft 452 kts 296°
2026-05-06 13:40 22.35425 63.31223 35831 ft 452 kts 296°
2026-05-06 13:41 22.38140 63.25162 35825 ft 450 kts 296°
2026-05-06 13:41 22.40866 63.19067 35827 ft 450 kts 296°
2026-05-06 13:42 22.43590 63.12968 35823 ft 450 kts 295°
2026-05-06 13:42 22.45485 63.06520 35813 ft 452 kts 286°
2026-05-06 13:43 22.47174 63.00051 35825 ft 451 kts 286°
2026-05-06 13:43 22.48865 62.93509 35823 ft 451 kts 286°
2026-05-06 13:44 22.50551 62.86972 35826 ft 451 kts 286°
2026-05-06 13:44 22.52234 62.80434 35824 ft 451 kts 286°
2026-05-06 13:45 22.53915 62.73892 35825 ft 452 kts 286°
2026-05-06 13:45 22.56426 62.64098 35823 ft 450 kts 286°
2026-05-06 13:46 22.58096 62.57573 35825 ft 450 kts 285°
2026-05-06 13:46 22.59751 62.51088 35826 ft 450 kts 285°
2026-05-06 13:47 22.61397 62.44633 35827 ft 450 kts 285°
2026-05-06 13:47 22.63059 62.38097 35826 ft 450 kts 285°
2026-05-06 13:48 22.64721 62.31555 35826 ft 450 kts 285°
2026-05-06 13:48 22.66378 62.25018 35827 ft 450 kts 285°
2026-05-06 13:49 22.68016 62.18543 35822 ft 451 kts 285°
2026-05-06 13:49 22.69671 62.11990 35824 ft 451 kts 285°
2026-05-06 13:50 22.71325 62.05428 35821 ft 451 kts 285°
2026-05-06 13:50 22.72973 61.98877 35823 ft 451 kts 285°
2026-05-06 13:51 22.74617 61.92330 35825 ft 451 kts 285°
2026-05-06 13:51 22.76263 61.85765 35824 ft 451 kts 285°
2026-05-06 13:52 22.77896 61.79236 35823 ft 452 kts 285°
2026-05-06 13:52 22.79537 61.72666 35823 ft 452 kts 285°
2026-05-06 13:53 22.81171 61.66113 35821 ft 452 kts 285°
2026-05-06 13:53 22.82808 61.59531 35821 ft 451 kts 285°
2026-05-06 13:54 22.84442 61.52951 35820 ft 451 kts 285°
2026-05-06 13:54 22.86073 61.46371 35821 ft 451 kts 285°
2026-05-06 13:55 22.87695 61.39816 35815 ft 450 kts 285°
2026-05-06 13:55 22.89301 61.33309 35814 ft 449 kts 285°
2026-05-06 13:56 22.90917 61.26752 35812 ft 450 kts 285°
2026-05-06 13:56 22.92535 61.20176 35812 ft 450 kts 285°
2026-05-06 13:57 22.94143 61.13626 35816 ft 450 kts 285°
2026-05-06 13:57 22.95742 61.07106 35812 ft 450 kts 285°
2026-05-06 13:58 22.97348 61.00545 35811 ft 450 kts 285°
2026-05-06 13:58 22.98921 60.93961 35804 ft 451 kts 280°
2026-05-06 13:59 22.99077 60.90594 35797 ft 450 kts 265°
2026-05-06 13:59 22.98702 60.87207 35806 ft 453 kts 264°
2026-05-06 13:59 22.97876 60.80423 35812 ft 453 kts 263°
2026-05-06 14:00 22.96977 60.73651 35812 ft 453 kts 263°
2026-05-06 14:00 22.96061 60.66883 35813 ft 453 kts 263°
2026-05-06 14:01 22.95148 60.60171 35807 ft 453 kts 263°
2026-05-06 14:01 22.94225 60.53405 35807 ft 453 kts 263°
2026-05-06 14:02 22.93298 60.46636 35804 ft 453 kts 263°
2026-05-06 14:02 22.92369 60.39872 35804 ft 453 kts 263°
2026-05-06 14:03 22.91438 60.33117 35804 ft 453 kts 263°
2026-05-06 14:03 22.90660 60.27483 35802 ft 454 kts 263°
2026-05-06 14:04 22.89716 60.20706 35810 ft 453 kts 263°
2026-05-06 14:04 22.88776 60.14003 35794 ft 452 kts 262°
2026-05-06 14:05 22.87830 60.07274 35799 ft 453 kts 262°
2026-05-06 14:05 22.86878 60.00522 35796 ft 453 kts 262°
2026-05-06 14:06 22.85923 59.93776 35793 ft 452 kts 262°
2026-05-06 14:06 22.84974 59.87039 35793 ft 452 kts 263°
2026-05-06 14:07 22.84041 59.80316 35790 ft 452 kts 262°
2026-05-06 14:07 22.83105 59.73600 35790 ft 452 kts 262°
2026-05-06 14:08 22.82163 59.66863 35793 ft 452 kts 262°
2026-05-06 14:08 22.81216 59.60111 35800 ft 452 kts 262°
2026-05-06 14:09 22.80271 59.53396 35801 ft 452 kts 262°
2026-05-06 14:09 22.79319 59.46646 35818 ft 452 kts 262°
2026-05-06 14:10 22.78366 59.39913 35820 ft 452 kts 262°
2026-05-06 14:10 22.77405 59.33167 35826 ft 452 kts 262°
2026-05-06 14:11 22.76443 59.26440 35826 ft 452 kts 262°
2026-05-06 14:11 22.75484 59.19744 35839 ft 452 kts 262°
2026-05-06 14:12 22.74515 59.13007 35847 ft 453 kts 262°
2026-05-06 14:12 22.73542 59.06255 35856 ft 453 kts 262°
2026-05-06 14:13 22.72570 58.99539 35856 ft 452 kts 262°
2026-05-06 14:13 22.71593 58.92805 35851 ft 452 kts 262°
2026-05-06 14:14 22.70620 58.86118 35855 ft 452 kts 262°
2026-05-06 14:14 22.69637 58.79388 35848 ft 452 kts 262°
2026-05-06 14:15 22.68655 58.72675 35846 ft 452 kts 262°
2026-05-06 14:15 22.67667 58.65944 35848 ft 452 kts 262°
2026-05-06 14:16 22.67494 58.59213 35844 ft 449 kts 283°
2026-05-06 14:16 22.69053 58.52640 35840 ft 451 kts 285°
2026-05-06 14:17 22.70718 58.46105 35846 ft 451 kts 285°
2026-05-06 14:17 22.72413 58.39605 35847 ft 451 kts 285°
2026-05-06 14:18 22.74121 58.33064 35850 ft 451 kts 285°
2026-05-06 14:18 22.75829 58.26513 35846 ft 451 kts 285°
2026-05-06 14:19 22.77525 58.19999 35853 ft 450 kts 285°
2026-05-06 14:19 22.79220 58.13475 35859 ft 449 kts 285°
2026-05-06 14:20 22.80910 58.06960 35858 ft 449 kts 285°
2026-05-06 14:20 22.82587 58.00483 35863 ft 449 kts 285°
2026-05-06 14:21 22.84269 57.93976 35862 ft 449 kts 285°
2026-05-06 14:21 22.85951 57.87452 35870 ft 449 kts 285°
2026-05-06 14:22 22.87632 57.80924 35877 ft 450 kts 285°
2026-05-06 14:22 22.89295 57.74374 35883 ft 450 kts 284°
2026-05-06 14:23 22.90926 57.67842 35900 ft 450 kts 284°
2026-05-06 14:23 22.92545 57.61352 35895 ft 448 kts 284°
2026-05-06 14:24 22.94169 57.54832 35911 ft 448 kts 284°
2026-05-06 14:24 22.95793 57.48297 35908 ft 447 kts 284°
2026-05-06 14:25 22.97407 57.41791 35912 ft 448 kts 284°
2026-05-06 14:25 22.99023 57.35266 35904 ft 448 kts 284°
2026-05-06 14:26 23.01060 57.28893 35923 ft 448 kts 297°
2026-05-06 14:26 23.03911 57.22859 35904 ft 449 kts 296°
2026-05-06 14:27 23.06764 57.16834 35927 ft 450 kts 296°
2026-05-06 14:27 23.09608 57.10845 35918 ft 448 kts 296°
2026-05-06 14:28 23.12468 57.04817 35902 ft 448 kts 296°
2026-05-06 14:28 23.15325 56.98789 35911 ft 449 kts 296°
2026-05-06 14:29 23.18172 56.92774 35890 ft 448 kts 296°
2026-05-06 14:29 23.21024 56.86741 35895 ft 448 kts 295°
2026-05-06 14:30 23.23874 56.80705 35878 ft 448 kts 295°
2026-05-06 14:30 23.26700 56.74711 35882 ft 446 kts 295°
2026-05-06 14:31 23.29520 56.68724 35868 ft 446 kts 295°
2026-05-06 14:31 23.32349 56.62711 35856 ft 446 kts 295°
2026-05-06 14:32 23.35172 56.56702 35861 ft 446 kts 295°
2026-05-06 14:32 23.38001 56.50674 35856 ft 447 kts 295°
2026-05-06 14:33 23.40816 56.44666 35854 ft 447 kts 295°
2026-05-06 14:33 23.43621 56.38674 35855 ft 446 kts 295°
2026-05-06 14:34 23.46428 56.32669 35853 ft 445 kts 295°
2026-05-06 14:34 23.49218 56.26694 35826 ft 445 kts 295°
2026-05-06 14:35 23.50594 56.23745 35507 ft 435 kts 295°
2026-05-06 14:35 23.51969 56.20798 34675 ft 439 kts 295°
2026-05-06 14:35 23.53369 56.17794 33676 ft 447 kts 295°
2026-05-06 14:35 23.54772 56.14781 32978 ft 444 kts 295°
2026-05-06 14:36 23.56171 56.11774 32045 ft 447 kts 295°
2026-05-06 14:36 23.57586 56.08731 31055 ft 452 kts 295°
2026-05-06 14:36 23.58999 56.05693 30206 ft 455 kts 295°
2026-05-06 14:36 23.60433 56.02606 29174 ft 458 kts 295°
2026-05-06 14:37 23.61871 55.99512 28060 ft 463 kts 295°
2026-05-06 14:37 23.63331 55.96365 26953 ft 467 kts 296°
2026-05-06 14:37 23.64803 55.93192 25837 ft 471 kts 296°
2026-05-06 14:37 23.66290 55.89984 24669 ft 477 kts 296°
2026-05-06 14:38 23.67785 55.86755 23906 ft 474 kts 296°
2026-05-06 14:38 23.69262 55.83566 23274 ft 467 kts 296°